Location: ??????????
(48.4699°N, 37.9573°E)
Time: 13:07:34
(UTC+00:00)

USA 229 DEB - Pass Details

Date: 20 January 2021
Orbit: 965 x 1247 km, 63.4° (Epoch: 26 February)

Event Time Altitude Azimuth Distance (km) Brightness Sun altitude
Rises 17:52:55 0° 317° (NW) 3,958 7.3 -36.8°
Reaches altitude 10° 17:55:35 10° 314° (NW) 3,035 6.6 -37.2°
Enters shadow 18:01:49 55° 265° (W) 1,400 4.4 -38.2°
